STARLINK-34393 (64724 NORAD) Tracking and Keplerian Element Data

This shows tracking and keplerian element data for the satellite.

Feedback or suggestion? Click here.




ElementValue
Catalog64724
NameSTARLINK-34393
Epoch Orbit2741
Epoch Day353.27433502
Epoch Year2025
RAAN194.3011
Inclination53.1585
Eccentricity0.0001691
Argument of Perigee91.9673
Mean Anonmoly268.1522
Mean Motion15.30195128
Decay Rate0.0001131
L11 64724U 25144A 25353.27433502 .00011310 00000+0 39345-3 0 9995
L22 64724 53.1585 194.3011 0001691 91.9673 268.1522 15.30195128 27418



Live tracking and technical data element details for STARLINK-34393 (NORAD 64724). STARLINK-34393 can be tracked NOW for your location showing map with azimuth and elevation plus other details from your city location.







IsCatalogInMostPopularTable: catalog: 64724, numindb: 10
Update: records affected: 1



GetName: 64724 STARLINK-34393

Hit Count: updated at: Mon, 20 Apr 2026 10:01:02 GMT